星链-11394 (STARLINK-11394)

导读 | 豆包AI

STARLINK-11394是美国太空探索技术公司(SpaceX)于2024年12月5日发射的星链(Starlink)卫星,属于星链互联网星座的组网卫星,承担着为全球用户提供低延迟、高速率的卫星宽带互联网接入服务的任务,推动星链星座全球覆盖能力进一步完善,助力卫星互联网服务扩展落地。

基本信息
目录编号:
62218
目录名称:
STARLINK-11394
国际标识:
2024-231A
轨道中心:
EARTH
卫星名称:
星链-11394
卫星全名:
星链-11394 (STARLINK-11394)
卫星状态:
在轨 (已飞行465 天)
发射日期:
2024-12-05 UTC
国别 :
美国 (US)
星等 :
--
轨道信息
数据来源 国际轨道数据
星历时间: 2026-03-15T01:37:15+0800
14小时前
查看轨道信息
半长轴: 6737.536km
偏心率: 0.0002501
轨道倾角: 53.157°
近地点辐角 75.292°
升交点赤经 76.412°
平近点角 284.838°
近地点: 357.713km
远地点: 361.085km
周期: 91.730分钟
每日圈数: 15.698247
详细信息
固有亮度:
5
最大亮度:
2.5
卫星平台:
Starlink V1.0
覆盖范围:
全球
运营商:
太空探索技术公司
运营商所在国:
美国
制造商(研发单位):
太空探索技术公司
制造商所在国:
美国
使用方式:
暂无
卫星简介
Starlink 计划是 SpaceX 推出的全球卫星互联网项目,通过发射低轨道卫星,为全球尤其是偏远地区提供高速、低延迟的互联网服务。自 2019 年起,Starlink 已部署数千颗卫星,旨在缩小全球数字鸿沟,推动互联网普及。该项目还为军事、航空等行业提供通信支持,带来广泛经济效益。
2D轨道图
3D轨道图
轨道高度分析图
轨道倾角分析图
轨道综合分析图
查看轨道综合分析图